FW9615 Weather Reports


Display with metric or nautical units.
time (UTC)temp
F
wind
direction
speed
MPH
gust
MPH
rain 1hr
in
rain 24hr
in
rain mn
in
humidity
%
barometer
mb
20260504173057 76 181 1.0 4.0 0.00 0.00 0.00 31 1012.6
20260504171600 76 86 1.0 3.0 0.00 0.00 0.00 34 1012.9
20260504081550 41 0 0.0 0.0 0.00 0.00 0.00 88 1015.8
20260504044552 38 0 0.0 0.0 0.00 0.00 0.00 84 1015.9
20260504043053 38 0 0.0 0.0 0.00 0.00 0.00 84 1016.0
20260504041555 39 0 0.0 0.0 0.00 0.00 0.00 83 1016.0
20260504040057 39 0 0.0 0.0 0.00 0.00 0.00 82 1015.8
20260504034553 39 0 0.0 0.0 0.00 0.00 0.00 81 1015.8
20260504033054 40 0 0.0 0.0 0.00 0.00 0.00 80 1015.7
20260504031553 40 0 0.0 0.0 0.00 0.00 0.00 79 1015.6
20260504030056 41 0 0.0 0.0 0.00 0.00 0.00 77 1015.7
20260504024616 41 0 0.0 0.0 0.00 0.00 0.00 75 1015.5
20260504023049 42 0 0.0 0.0 0.00 0.00 0.00 73 1015.5
20260504021550 43 0 0.0 0.0 0.00 0.00 0.00 71 1015.6
20260504020047 44 0 0.0 0.0 0.00 0.00 0.00 69 1015.3
20260504014601 45 0 0.0 0.0 0.00 0.00 0.00 66 1015.2
20260504013056 46 0 0.0 0.0 0.00 0.00 0.00 65 1015.4
20260504011550 47 0 0.0 0.0 0.00 0.00 0.00 61 1015.2
20260504010057 48 0 0.0 0.0 0.00 0.00 0.00 58 1015.1
20260504004550 49 0 0.0 0.0 0.00 0.00 0.00 55 1015.0
20260504003057 51 0 0.0 0.0 0.00 0.00 0.00 52 1014.8
20260504001554 52 0 0.0 0.0 0.00 0.00 0.00 48 1014.6
20260504000128 54 0 0.0 0.0 0.00 0.00 0.00 45 1014.5
20260503234559 56 0 0.0 0.0 0.00 0.00 0.00 41 1014.6
20260503233049 58 0 0.0 0.0 0.00 0.00 0.00 38 1014.4
20260503231546 59 0 0.0 1.0 0.00 0.00 0.00 36 1014.1
20260503230050 59 288 0.0 3.0 0.00 0.00 0.00 36 1014.2
20260503224550 60 0 0.0 2.0 0.00 0.00 0.00 35 1014.2
20260503223052 60 0 0.0 4.0 0.00 0.00 0.00 36 1014.2
20260503221555 60 0 0.0 4.0 0.00 0.00 0.00 35 1014.2
20260503220053 60 151 0.0 3.0 0.00 0.00 0.00 33 1014.2
20260503214556 61 291 0.0 5.0 0.00 0.00 0.00 34 1014.3
20260503213051 60 271 0.0 5.0 0.00 0.00 0.00 35 1014.3
20260503211559 61 314 1.0 4.0 0.00 0.00 0.00 33 1014.1
20260503210050 61 229 0.0 6.0 0.00 0.00 0.00 33 1014.2
20260503204552 62 314 1.0 3.0 0.00 0.00 0.00 33 1014.4
20260503203107 63 276 1.0 4.0 0.00 0.00 0.00 34 1014.4
20260503201554 62 335 1.0 6.0 0.00 0.00 0.00 35 1014.6
20260503200049 63 345 2.0 8.0 0.00 0.00 0.00 33 1014.9
20260503194556 62 30 1.0 6.0 0.00 0.00 0.00 34 1015.0
20260503193052 63 232 1.0 6.0 0.00 0.00 0.00 35 1015.3
20260503191553 61 341 1.0 7.0 0.00 0.00 0.00 38 1015.4
20260503190049 62 128 1.0 4.0 0.00 0.00 0.00 39 1015.5
20260503184551 61 86 0.0 4.0 0.00 0.00 0.00 38 1015.7
20260503183053 60 311 1.0 8.0 0.00 0.00 0.00 35 1015.8
20260503181602 61 258 1.0 7.0 0.00 0.00 0.00 35 1015.9
20260503174551 60 338 0.0 6.0 0.00 0.00 0.00 39 1016.3